Theta_e
335 330 330 331 328 325 325 328 331 330 330 329 327 327 328 325 325 326 325 323 326 322
332 332 330 332 334 329 333 329 330 328 327 327 327 327 327 325 325 326 326 326 326 322
331 332 332 332 331 331 331 329 328 327 328 327 328 327 327 325 324 325 324 323 324 322
328 330 331 331 332 330 331 329 327 327 327 327 327 327 327 326 323 322 323 323 321 321
327 330 331 332 332 332 330 329 328 328 327 327 327 327 326 324 322 321 320 320 320 319
327 329 330 331 332 330 330 328 328 327 328 327 327 326 326 324 322 321 321 320 319 319
325 328 330 331 331 331 330 329 327 328 328 328 327 326 325 323 322 321 320 320 319 318
327 329 328 330 329 330 330 328 328 328 328 328 326 324 325 322 320 320 318 317 315 314
328 329 327 329 329 328 327 327 328 327 327 327 324 308 308 315 319 316 314 313 313 314
327 328 329 328 327 327 328 329 327 327 327 326 325 304 303 304 314 314 313 313 313 311
326 326 328 328 327 329 329 328 327 326 325 324 320 302 300 301 313 313 313 312 312 311
327 327 327 326 328 328 326 326 324 322 320 318 318 301 299 302 311 310 310 310 310 309
327 327 326 327 325 323 323 321 318 315 315 308 314 301 298 301 307 307 307 308 309 303
321 323 323 321 318 317 317 313 311 312 313 312 310 309 297 296 305 305 305 305 306 308
Wind_Speed
17 12 12 14 12 12 11 10 12 9 9 9 8 6 5 4 3 3 3 2 2 3
17 17 14 15 13 11 10 10 12 11 10 10 8 7 6 4 4 2 1 1 1 3
17 17 14 14 14 13 11 13 13 12 11 10 8 7 5 5 4 2 0 2 2 4
18 16 15 14 14 14 13 13 14 13 12 11 9 8 6 4 4 3 2 3 5 6
16 16 16 14 14 15 15 15 14 13 12 11 10 8 6 5 4 4 5 5 6 7
16 17 16 15 14 15 15 15 13 12 12 11 9 8 6 5 5 5 6 6 7 9
15 16 17 16 17 16 16 15 14 12 10 9 9 7 6 5 5 5 6 6 8 9
18 15 15 17 17 15 15 13 13 12 11 9 7 5 6 5 5 6 7 8 9 9
18 20 17 17 16 15 15 14 14 12 11 10 6 8 6 4 5 6 8 8 9 9
19 20 19 18 17 16 15 14 13 12 11 9 7 8 6 7 6 6 7 8 9 9
16 17 17 17 16 15 13 13 12 11 10 8 6 7 6 5 5 7 8 9 11 11
15 15 16 17 15 13 12 11 10 9 8 7 5 6 1 3 6 8 10 10 11 11
11 13 13 13 13 10 11 10 9 8 6 4 4 6 1 3 6 9 9 11 12 10
8 8 10 11 11 12 12 11 9 8 6 5 4 4 4 5 6 7 8 10 10 9
Wind_Direction
180 182 180 179 174 181 180 177 166 172 166 160 155 149 142 133 127 126 101 84 28 336
178 181 182 177 175 177 173 164 167 166 164 165 161 161 156 145 144 139 122 61 325 296
180 176 173 169 177 176 170 165 163 167 169 168 167 167 172 161 143 157 167 304 297 294
179 178 167 169 176 176 166 170 170 173 172 174 170 169 175 165 154 205 247 268 278 291
166 174 168 168 177 171 171 177 175 174 177 176 171 172 179 182 192 229 246 259 276 289
173 170 170 170 172 178 171 173 175 176 182 180 175 175 186 198 215 240 259 273 278 284
177 176 174 172 172 176 178 170 172 180 184 179 176 189 198 204 225 246 262 270 272 280
175 173 176 172 179 172 176 171 168 173 186 179 183 193 197 212 232 251 267 272 276 275
176 172 176 171 170 167 168 169 165 179 183 180 190 145 161 221 241 261 273 288 286 284
183 176 178 169 167 171 173 168 167 173 182 184 187 152 168 206 245 265 280 281 284 288
189 179 169 166 170 166 167 167 169 170 181 178 177 165 201 211 279 281 282 279 279 282
182 172 168 163 164 156 158 158 164 165 168 183 183 175 208 318 301 288 284 280 280 279
175 171 164 154 147 149 144 150 140 148 162 132 233 154 222 286 287 286 294 291 283 244
91 118 127 127 135 136 142 137 137 155 165 187 233 255 208 241 288 289 293 287 287 285